Regional Weather Roundup
Issued by NWS

Home | Current Version | Previous Version | Text Only | Print | Product List | Glossary Off
Versions: 1 2 3 4 5 6 7 8 9 10 11 12 13 14 15 16 17 18 19 20 21 22 23 24 25 26 27 28 29 30 31 32 33 34 35 36 37 38 39 40 41 42 43 44 45 46 47 48 49 50

000
ASUS43 KDTX 301510
RWRMI
MICHIGAN HOURLY REGIONAL WEATHER ROUNDUP
NATIONAL WEATHER SERVICE DETROIT/PONTIAC MI
1000 AM EST FRI JAN 30 2015

NOTE: "FAIR" INDICATES FEW OR NO CLOUDS BELOW 12,000 FEET WITH NO
SIGNIFICANT WEATHER AND/OR OBSTRUCTION TO VISIBILITY.

MIZ047>049-052>055-059>063-066>070-074>076-081>083-301600-
SOUTHEAST LOWER MICHIGAN

CITY           SKY/WX    TMP DP  RH WIND       PRES   REMARKS
ADRIAN         MOSUNNY   19   7  59 N15G23    30.42R
ALMA           CLOUDY    17   6  62 N14G20    30.46R
ANN ARBOR      PTSUNNY   16   5  62 N20G25    30.41R WCI  -1
BAD AXE        CLOUDY    10   5  80 NW21      30.39R HAZE    WCI -10
DETROIT CITY   MOSUNNY   16   2  54 N15G26    30.40R
DETROIT        PTSUNNY   21  14  73 NW12      30.41R
FLINT          MOSUNNY   14   1  56 N20G30    30.43R WCI  -3
GROSSE ILE     SUNNY     16   3  57 N16G24    30.40R
HILLSDALE      PTSUNNY   19   7  60 N12       30.39R
HOWELL         PTSUNNY   13   4  66 NW13G24   30.41R WCI  -2

CITY           SKY/WX    TMP DP  RH WIND       PRES   REMARKS
JACKSON        CLOUDY    17   6  62 N13G21    30.42R
LAMBERTVILLE   MOSUNNY   19   9  63 N15G23    30.43R
LANSING        CLOUDY    17   6  62 N13G22    30.44R
LAPEER         NOT AVBL
MASON          CLOUDY    16   6  64 N15       30.43R
MONROE         PTSUNNY   18   7  62 N15G22    30.41R
MT. CLEMENS    MOSUNNY   13   2  62 NW20      30.37R WCI  -5
PONTIAC        PTSUNNY   12   3  67 N20G28    30.37R WCI  -6
PORT HOPE        N/A     15   7  70 NW12G21   30.38R
PORT HURON     CLOUDY    12   5  73 NW14G24   30.37R WCI  -3
TRI CITIES     MOSUNNY   14   2  58 N10       30.46R
YPSILANTI      PTSUNNY   20   8  60 N17G24    30.42R
$$
MIZ043>046-050>051-056>058-064>065-071>073-077>080-301600-
SOUTHWEST LOWER MICHIGAN

CITY           SKY/WX    TMP DP  RH WIND       PRES   REMARKS
BATTLE CREEK   CLOUDY    21   7  54 N13       30.44R
BENTON HARBOR  LGT SNOW  22  17  81 NE8G18    30.48R
BIG RAPIDS     CLOUDY    18   9  70 N10G16    30.42R
COLDWATER      CLOUDY    20   8  58 N10G16    30.43R
HOLLAND        FLURRIES  21  10  62 N8        30.48R
GRAND RAPIDS   CLOUDY    20   7  57 NW13      30.46R
KALAMAZOO      CLOUDY    20  10  65 N9        30.46R
MARSHALL       CLOUDY    19   7  60 NW10G17   30.42R
MUSKEGON       FLURRIES  21   9  59 N12       30.49R
$$
MIZ016>042-301600-
NORTHERN LOWER MICHIGAN

CITY           SKY/WX    TMP DP  RH WIND       PRES   REMARKS
ALPENA         MOSUNNY    5  -1  76 N16       30.44S WCI -14
BEAVER ISLAND  LGT SNOW  10   6  83 CALM      30.46R
CADILLAC       CLOUDY    12   6  76 N8        30.38R
CHARLEVOIX     CLOUDY     8   2  76 E6        30.49R
FRANKFORT      CLOUDY    18  10  69 N6        30.47R
GAYLORD        CLOUDY     4  -1  80 N5        30.39R
GRAYLING       CLOUDY     8   0  70 N5        30.42R
HARBOR SPRINGS CLOUDY     5  -2  71 NE9       30.46R
HOUGHTON LAKE  CLOUDY    10   1  67 N9        30.41R
MANISTEE       CLOUDY    19   7  58 NE7       30.47R
OSCODA         MOSUNNY    8  -1  67 NW16G24   30.43R WCI -10
PELLSTON       CLOUDY     4  -4  69 NE7       30.47R
TRAVERSE CITY  CLOUDY    15   8  73 NE8       30.45R
$$
MIZ007>008-015-301600-
EASTERN UPPER MICHIGAN

CITY           SKY/WX    TMP DP  RH WIND       PRES   REMARKS
KINROSS        CLOUDY    -2  -9  71 NE6       30.46R
MACKINAC ISLAN MOSUNNY    2  -7  66 NE10      30.46R WCI -13
NEWBERRY       LGT SNOW   3   0  87 E3        30.44R
S. S. MARIE    PTSUNNY   -1 -11  62 CALM      30.46R
$$
MIZ004>006-011>014-085-301600-
CENTRAL UPPER MICHIGAN

CITY           SKY/WX    TMP DP  RH WIND       PRES   REMARKS
MANISTIQUE     LGT SNOW  14  10  83 NW3       30.46R
ESCANABA       CLOUDY    10   0  61 NW9       30.50R
MENOMINEE      MOSUNNY   12   1  62 N8        30.51R
SAWYER-GWINN   CLOUDY     9   1  72 NW8       30.42S
$$
MIZ001>003-009>011-084-301600-
WESTERN UPPER MICHIGAN

CITY           SKY/WX    TMP DP  RH WIND       PRES   REMARKS
IRON MOUNTAIN  CLOUDY    10   0  63 NW6       30.46R
HOUGHTON       LGT SNOW   9   2  73 NW7       30.43S
COPPER HARBOR    N/A     12   3  67 N12       30.47R WCI  -2
IRONWOOD       CLOUDY    10   5  79 SW8       30.42S
$$

ABBREVIATIONS USED IN REMARKS
   TC - TEMPERATURE IN CELSIUS
  WCI - WIND CHILL INDEX
   HX - HEAT INDEX
  VSB - VISIBILITY



USA.gov is the U.S. government's official web portal to all federal, state and local government web resources and services.